Tracking 19831 objects as of 23-Aug-2019
HD Live streaming from Space Station
objects crossing your sky now

CZ-4B DEB

Track CZ-4B DEB now!
10-day predictions


NORAD ID: 41041
Int'l Code: 2015-064D
Perigee: 470.0 km
Apogee: 750.6 km
Inclination: 97.2 °
Period: 96.8 minutes
Semi major axis: 6981 km
RCS: Unknown
Launch date: November 8, 2015
Source: People's Republic of China (PRC)
Launch site: Taiyaun Space Center, China (TSC)

Note: This is SATELLITE DEBRIS
aabbcc
Your satellite tracking list
Your tracking list is empty




NASA's NSSDC Master Catalog

Two Line Element Set (TLE):
1 41041U 15064D   19234.52975122 +.00000766 +00000-0 +61817-4 0  9994
2 41041 097.2038 262.6683 0200988 251.2419 106.6897 14.88331327203894
Source of the keplerian elements: AFSPC